H1 CPF 2 NER 2023 6 4 9 155 01 glonass116 H2 0907001 9116 36111 2023 6 4 0 0 0 2023 6 7 23 45 0 900 1 1 0 0 0 1 H9 10 0 60099 0.00000 0 -19441920.307 -16249914.655 2868873.434 10 0 60099 900.00000 0 -19069622.390 -15826168.866 6016915.724 10 0 60099 1800.00000 0 -18341409.936 -15234742.396 9047978.789 10 0 60099 2700.00000 0 -17250036.603 -14531908.275 11903158.070 10 0 60099 3600.00000 0 -15801279.435 -13775728.222 14526990.388 10 0 60099 4500.00000 0 -14013909.147 -13023459.233 16868532.263 10 0 60099 5400.00000 0 -11919125.763 -12329012.216 18882347.775 10 0 60099 6300.00000 0 -9559482.936 -11740570.240 20529386.954 10 0 60099 7200.00000 0 -6987345.674 -11298466.822 21777738.117 10 0 60099 8100.00000 0 -4262945.506 -11033413.367 22603240.242 10 0 60099 9000.00000 0 -1452113.677 -10965149.917 22989944.324 10 0 60099 9900.00000 0 1376213.886 -11101575.375 22930415.600 10 0 60099 10800.00000 0 4152616.946 -11438393.237 22425871.540 10 0 60099 11700.00000 0 6809828.806 -11959287.177 21486153.517 10 0 60099 12600.00000 0 9285283.247 -12636618.833 20129533.051 10 0 60099 13500.00000 0 11523466.021 -13432618.315 18382356.483 10 0 60099 14400.00000 0 13477974.557 -14301017.487 16278534.797 10 0 60099 15300.00000 0 15113201.454 -15189057.605 13858888.158 10 0 60099 16200.00000 0 16405572.971 -16039787.179 11170357.384 10 0 60099 17100.00000 0 17344292.014 -16794553.750 8265097.115 10 0 60099 18000.00000 0 17931555.655 -17395584.937 5199467.782 10 0 60099 18900.00000 0 18182238.992 -17788550.192 2032945.551 10 0 60099 19800.00000 0 18123059.447 -17924995.313 -1173028.932 10 0 60099 20700.00000 0 17791257.232 -17764546.838 -4356240.708 10 0 60099 21600.00000 0 17232848.053 -17276792.941 -7454906.525 10 0 60099 22500.00000 0 16500521.992 -16442760.911 -10408873.204 10 0 60099 23400.00000 0 15651277.443 -15255928.055 -13160784.925 10 0 60099 24300.00000 0 14743890.017 -13722722.460 -15657196.665 10 0 60099 25200.00000 0 13836323.254 -11862491.309 -17849612.105 10 0 60099 26100.00000 0 12983190.355 -9706936.780 -19695425.839 10 0 60099 27000.00000 0 12233373.900 -7299041.762 -21158751.673 10 0 60099 27900.00000 0 11627903.829 -4691528.899 -22211121.087 10 0 60099 28800.00000 0 11198183.057 -1944915.950 -22832038.386 10 0 60099 29700.00000 0 10964635.462 874752.782 -23009381.876 10 0 60099 30600.00000 0 10935833.283 3698405.666 -22739643.265 10 0 60099 31500.00000 0 11108140.864 6456570.654 -22028000.448 10 0 60099 32400.00000 0 11465890.028 9082021.535 -20888221.989 10 0 60099 33300.00000 0 11982080.045 11512334.187 -19342404.678 10 0 60099 34200.00000 0 12619573.081 13692247.023 -17420548.735 10 0 60099 35100.00000 0 13332735.025 15575727.804 -15159978.325 10 0 60099 36000.00000 0 14069452.722 17127661.013 -12604618.134 10 0 60099 36900.00000 0 14773442.443 18325085.746 -9804139.705 10 0 60099 37800.00000 0 15386751.939 19157932.754 -6812993.970 10 0 60099 38700.00000 0 15852349.890 19629230.398 -3689348.847 10 0 60099 39600.00000 0 16116692.663 19754771.556 -493952.987 10 0 60099 40500.00000 0 16132159.036 19562256.430 2711051.686 10 0 60099 41400.00000 0 15859249.065 19089948.392 5863344.791 10 0 60099 42300.00000 0 15268453.231 18384900.661 8901645.171 10 0 60099 43200.00000 0 14341712.037 17500829.774 11766906.979 10 0 60099 44100.00000 0 13073403.710 16495726.644 14403470.281 10 0 60099 45000.00000 0 11470817.660 15429306.929 16760143.342 10 0 60099 45900.00000 0 9554093.258 14360408.892 18791195.446 10 0 60099 46800.00000 0 7355625.955 13344448.790 20457241.145 10 0 60099 47700.00000 0 4918965.161 12431041.000 21725999.204 10 0 60099 48600.00000 0 2297249.492 11661882.732 22572912.188 10 0 60099 49500.00000 0 -448755.922 11068991.683 22981615.524 10 0 60099 50400.00000 0 -3252938.954 10673369.930 22944247.731 10 0 60099 51300.00000 0 -6046342.822 10484149.297 22461596.614 10 0 60099 52200.00000 0 -8759788.235 10498253.205 21543079.163 10 0 60099 53100.00000 0 -11326507.464 10700588.448 20206555.930 10 0 60099 54000.00000 0 -13684682.139 11064758.232 18477983.589 10 0 60099 54900.00000 0 -15779780.528 11554266.120 16390912.265 10 0 60099 55800.00000 0 -17566598.263 12124160.112 13985837.053 10 0 60099 56700.00000 0 -19010918.743 12723047.642 11309415.820 10 0 60099 57600.00000 0 -20090725.012 13295396.791 8413567.902 10 0 60099 58500.00000 0 -20796913.440 13784026.848 5354470.700 10 0 60099 59400.00000 0 -21133480.172 14132683.319 2191473.227 10 0 60099 60300.00000 0 -21117173.203 14288588.702 -1014052.645 10 0 60099 61200.00000 0 -20776625.242 14204861.204 -4199901.004 10 0 60099 62100.00000 0 -20151004.222 13842698.901 -7304237.745 10 0 60099 63000.00000 0 -19288238.565 13173236.569 -10266799.954 10 0 60099 63900.00000 0 -18242892.124 12178996.056 -13030065.350 10 0 60099 64800.00000 0 -17073778.399 10854868.036 -15540368.967 10 0 60099 65700.00000 0 -15841414.548 9208582.603 -17748945.352 10 0 60099 66600.00000 0 -14605422.335 7260647.586 -19612875.973 10 0 60099 67500.00000 0 -13421985.279 5043755.662 -21095923.578 10 0 60099 68400.00000 0 -12341468.808 2601683.568 -22169237.409 10 0 60099 69300.00000 0 -11406303.296 -12272.103 -22811915.712 10 0 60099 70200.00000 0 -10649218.763 -2737258.739 -23011414.723 10 0 60099 71100.00000 0 -10091905.246 -5507150.707 -22763796.177 10 0 60099 72000.00000 0 -9744155.011 -8253057.639 -22073808.384 10 0 60099 72900.00000 0 -9603522.589 -10905954.681 -20954799.007 10 0 60099 73800.00000 0 -9655516.886 -13399326.089 -19428460.791 10 0 60099 74700.00000 0 -9874317.311 -15671712.709 -17524414.651 10 0 60099 75600.00000 0 -10223983.710 -17669057.705 -15279637.643 10 0 60099 76500.00000 0 -10660109.039 -19346753.016 -12737746.403 10 0 60099 77400.00000 0 -11131844.830 -20671301.304 -9948149.614 10 0 60099 78300.00000 0 -11584213.567 -21621524.132 -6965085.786 10 0 60099 79200.00000 0 -11960609.674 -22189266.097 -3846565.122 10 0 60099 80100.00000 0 -12205382.656 -22379565.769 -653236.409 10 0 60099 81000.00000 0 -12266392.204 -22210286.933 2552798.459 10 0 60099 81900.00000 0 -12097426.214 -21711226.381 5709198.528 10 0 60099 82800.00000 0 -11660378.430 -20922736.800 8754601.934 10 0 60099 83700.00000 0 -10927092.653 -19893923.776 11629823.661 10 0 60099 84600.00000 0 -9880794.728 -18680493.914 14279008.975 10 0 60099 85500.00000 0 -8517051.120 -17342345.663 16650719.639 10 0 60100 0.00000 0 -6844213.129 -15941005.161 18698931.482 10 0 60100 900.00000 0 -4883326.543 -14537014.686 20383925.172 10 0 60100 1800.00000 0 -2667512.197 -13187385.543 21673050.624 10 0 60100 2700.00000 0 -240839.857 -11943219.636 22541354.575 10 0 60100 3600.00000 0 2343256.012 -10847600.870 22972057.127 10 0 60100 4500.00000 0 5023954.059 -9933843.238 22956870.020 10 0 60100 5400.00000 0 7735335.762 -9224168.117 22496151.040 10 0 60100 6300.00000 0 10408892.736 -8728865.096 21598892.190 10 0 60100 7200.00000 0 12976148.406 -8445970.382 20282542.209 10 0 60100 8100.00000 0 15371286.199 -8361475.265 18572667.032 10 0 60100 9000.00000 0 17533676.102 -8450055.044 16502454.614 10 0 60100 9900.00000 0 19410195.553 -8676287.165 14112073.419 10 0 60100 10800.00000 0 20957249.050 -8996306.928 11447896.510 10 0 60100 11700.00000 0 22142403.200 -9359830.832 8561605.761 10 0 60100 12600.00000 0 22945569.682 -9712462.158 5509193.076 10 0 60100 13500.00000 0 23359687.363 -9998181.498 2349877.551 10 0 60100 14400.00000 0 23390875.478 -10161916.987 -855040.697 10 0 60100 15300.00000 0 23058051.889 -10152085.500 -4043367.930 10 0 60100 16200.00000 0 22392032.710 -9922997.145 -7153222.349 10 0 60100 17100.00000 0 21434151.349 -9437020.952 -10124234.387 10 0 60100 18000.00000 0 20234455.133 -8666419.611 -12898718.206 10 0 60100 18900.00000 0 18849555.365 -7594774.907 -15422791.574 10 0 60100 19800.00000 0 17340221.182 -6217942.663 -17647422.287 10 0 60100 20700.00000 0 15768818.235 -4544495.672 -19529380.764 10 0 60100 21600.00000 0 14196699.602 -2595634.553 -21032080.428 10 0 60100 22500.00000 0 12681658.246 -404568.688 -22126289.666 10 0 60100 23400.00000 0 11275547.611 1984608.455 -22790701.667 10 0 60100 24300.00000 0 10022169.839 4518504.194 -23012351.190 10 0 60100 25200.00000 0 8955519.781 7136407.113 -22786870.172 10 0 60100 26100.00000 0 8098458.096 9772581.901 -22118577.071 10 0 60100 27000.00000 0 7461868.740 12358784.166 -21020397.949 10 0 60100 27900.00000 0 7044335.869 14826891.418 -19513620.368 10 0 60100 28800.00000 0 6832353.412 17111541.307 -17627484.374 10 0 60100 29700.00000 0 6801058.169 19152667.600 -15398617.939 10 0 60100 30600.00000 0 6915455.201 20897828.390 -12870327.273 10 0 60100 31500.00000 0 7132083.402 22304229.332 -10091755.455 10 0 60100 32400.00000 0 7401050.416 23340357.357 -7116925.509 10 0 60100 33300.00000 0 7668350.232 23987156.473 -4003686.585 10 0 60100 34200.00000 0 7878364.606 24238696.451 -812584.092 10 0 60100 35100.00000 0 7976441.547 24102306.632 2394323.687 10 0 60100 36000.00000 0 7911440.666 23598169.679 5554678.768 10 0 60100 36900.00000 0 7638136.623 22758393.026 8607041.969 10 0 60100 37800.00000 0 7119377.909 21625597.921 11492092.241 10 0 60100 38700.00000 0 6327908.769 20251086.264 14153782.870 10 0 60100 39600.00000 0 5247776.420 18692663.288 16540431.563 10 0 60100 40500.00000 0 3875263.490 17012208.328 18605723.097 10 0 60100 41400.00000 0 2219305.730 15273096.253 20309605.176 10 0 60100 42300.00000 0 301376.844 13537578.059 21619060.529 10 0 60100 43200.00000 0 -1845155.330 11864230.284 22508740.909 10 0 60100 44100.00000 0 -4176175.012 10305579.662 22961451.520 10 0 60100 45000.00000 0 -6638419.825 8906001.607 22968477.297 10 0 60100 45900.00000 0 -9171471.316 7699979.399 22529745.524 10 0 60100 46800.00000 0 -11710052.638 6710795.610 21653822.222 10 0 60100 47700.00000 0 -14186538.693 5949709.176 20357742.831 10 0 60100 48600.00000 0 -16533575.331 5415651.252 18666680.558 10 0 60100 49500.00000 0 -18686699.668 5095451.337 16613458.739 10 0 60100 50400.00000 0 -20586853.385 4964583.209 14237916.341 10 0 60100 51300.00000 0 -22182685.242 4988398.454 11586138.439 10 0 60100 52200.00000 0 -23432547.532 5123795.157 8709566.037 10 0 60100 53100.00000 0 -24306103.745 5321251.025 5664002.011 10 0 60100 54000.00000 0 -24785480.699 5527134.945 2508532.000 10 0 60100 54900.00000 0 -24865917.246 5686199.157 -695619.128 10 0 60100 55800.00000 0 -24555882.553 5744146.548 -3886273.166 10 0 60100 56700.00000 0 -23876659.104 5650164.235 -7001503.816 10 0 60100 57600.00000 0 -22861407.939 5359315.931 -9980837.839 10 0 60100 58500.00000 0 -21553755.337 4834691.379 -12766428.580 10 0 60100 59400.00000 0 -20005960.194 4049221.330 -15304178.963 10 0 60100 60300.00000 0 -18276738.890 2987080.466 -17544792.080 10 0 60100 61200.00000 0 -16428838.727 1644618.043 -19444728.904 10 0 60100 62100.00000 0 -14526461.439 30775.700 -20967054.624 10 0 60100 63000.00000 0 -12632644.433 -1833026.575 -22082157.313 10 0 60100 63900.00000 0 -10806709.060 -3913533.115 -22768325.074 10 0 60100 64800.00000 0 -9101882.288 -6166798.615 -23012170.602 10 0 60100 65700.00000 0 -7563190.814 -8539791.200 -22808894.920 10 0 60100 66600.00000 0 -6225715.224 -10972387.063 -22162385.042 10 0 60100 67500.00000 0 -5113276.755 -13399674.732 -21085143.412 10 0 60100 68400.00000 0 -4237611.094 -15754473.965 -19598050.036 10 0 60100 69300.00000 0 -3598063.334 -17969964.947 -17729961.444 10 0 60100 70200.00000 0 -3181816.305 -19982318.654 -15517153.661 10 0 60100 71100.00000 0 -2964642.073 -21733218.769 -13002619.505 10 0 60100 72000.00000 0 -2912144.334 -23172169.765 -10235233.445 10 0 60100 72900.00000 0 -2981438.583 -24258494.448 -7268800.051 10 0 60100 73800.00000 0 -3123198.266 -24962937.087 -4161004.568 10 0 60100 74700.00000 0 -3283979.527 -25268804.719 -972286.327 10 0 60100 75600.00000 0 -3408725.130 -25172598.626 2235342.524 10 0 60100 76500.00000 0 -3443340.500 -24684109.603 5399509.311 10 0 60100 77400.00000 0 -3337231.683 -23825973.284 8458699.676 10 0 60100 78300.00000 0 -3045696.721 -22632704.754 11353458.497 10 0 60100 79200.00000 0 -2532068.255 -21149253.647 14027548.826 10 0 60100 80100.00000 0 -1769515.922 -19429141.178 16429045.838 10 0 60100 81000.00000 0 -742431.663 -17532258.014 18511344.349 10 0 60100 81900.00000 0 552661.081 -15522415.852 20234060.456 10 0 60100 82800.00000 0 2106713.139 -13464755.649 21563810.176 10 0 60100 83700.00000 0 3898287.435 -11423120.956 22474850.646 10 0 60100 84600.00000 0 5894223.683 -9457505.798 22949572.238 10 0 60100 85500.00000 0 8050802.727 -7621683.058 22978832.880 10 0 60101 0.00000 0 10315362.407 -5961111.482 22562128.947 10 0 60101 900.00000 0 12628299.544 -4511206.520 21707599.753 10 0 60101 1800.00000 0 14925372.422 -3296047.975 20431866.605 10 0 60101 2700.00000 0 17140212.785 -2327573.970 18759708.976 10 0 60101 3600.00000 0 19206940.638 -1605295.725 16723584.403 10 0 60101 4500.00000 0 21062774.951 -1116542.846 14363000.989 10 0 60101 5400.00000 0 22650531.997 -837227.817 11723754.242 10 0 60101 6300.00000 0 23920907.735 -733096.653 8857042.467 10 0 60101 7200.00000 0 24834449.343 -761412.377 5818477.402 10 0 60101 8100.00000 0 25363133.797 -872999.841 2667008.844 10 0 60101 9000.00000 0 25491487.558 -1014565.227 -536216.214 10 0 60101 9900.00000 0 25217200.434 -1131191.929 -3729037.915 10 0 60101 10800.00000 0 24551207.800 -1168907.027 -6849488.376 10 0 60101 11700.00000 0 23517237.508 -1077209.429 -9836993.596 10 0 60101 12600.00000 0 22150840.245 -811452.375 -12633548.904 10 0 60101 13500.00000 0 20497943.742 -334978.966 -15184845.009 10 0 60101 14400.00000 0 18612991.107 379080.235 -17441322.693 10 0 60101 15300.00000 0 16556740.977 1346424.309 -19359135.616 10 0 60101 16200.00000 0 14393821.226 2570673.184 -20901002.607 10 0 60101 17100.00000 0 12190138.138 4042972.491 -22036933.020 10 0 60101 18000.00000 0 10010248.930 5742130.061 -22744811.186 10 0 60101 18900.00000 0 7914806.890 7635279.866 -23010828.737 10 0 60101 19800.00000 0 5958185.237 9679047.147 -22829756.436 10 0 60101 20700.00000 0 4186378.380 11821167.429 -22205050.123 10 0 60101 21600.00000 0 2635267.585 14002493.127 -21148788.472 10 0 60101 22500.00000 0 1329322.864 16159305.045 -19681443.335 10 0 60101 23400.00000 0 280794.741 18225833.090 -17831486.661 10 0 60101 24300.00000 0 -510570.978 20136881.454 -15634841.011 10 0 60101 25200.00000 0 -1057284.216 21830448.814 -13134183.828 10 0 60101 26100.00000 0 -1383338.672 23250233.881 -10378118.564 10 0 60101 27000.00000 0 -1522950.294 24347921.163 -7420228.553 10 0 60101 27900.00000 0 -1518860.320 25085150.756 -4318032.018 10 0 60101 28800.00000 0 -1420275.589 25435089.050 -1131858.851 10 0 60101 29700.00000 0 -1280534.317 25383534.055 2076328.450 10 0 60101 30600.00000 0 -1154597.282 24929508.626 5244146.084 10 0 60101 31500.00000 0 -1096471.778 24085316.613 8310008.037 10 0 60101 32400.00000 0 -1156678.521 22876059.708 11214328.467 10 0 60101 33300.00000 0 -1379869.749 21338635.625 13900683.330 10 0 60101 34200.00000 0 -1802700.146 19520260.146 16316908.121 10 0 60101 35100.00000 0 -2452041.284 17476575.530 18416110.220 10 0 60101 36000.00000 0 -3343615.525 15269424.988 20157576.278 10 0 60101 36900.00000 0 -4481107.431 12964386.678 21507557.398 10 0 60101 37800.00000 0 -5855790.475 10628170.330 22439917.501 10 0 60101 38700.00000 0 -7446685.152 8325984.916 22936633.103 10 0 60101 39600.00000 0 -9221242.307 6118986.588 22988135.646 10 0 60101 40500.00000 0 -11136523.624 4061912.319 22593490.525 10 0 60101 41400.00000 0 -13140830.578 2200996.625 21760410.014 10 0 60101 42300.00000 0 -15175714.530 572256.787 20505100.243 10 0 60101 43200.00000 0 -17178284.880 -799783.514 18851945.383 10 0 60101 44100.00000 0 -19083719.792 -1902880.468 16833035.085 10 0 60101 45000.00000 0 -20827875.485 -2737334.954 14487544.016 10 0 60101 45900.00000 0 -22349885.865 -3315726.247 11860975.118 10 0 60101 46800.00000 0 -23594644.464 -3662126.967 9004280.661 10 0 60101 47700.00000 0 -24515065.264 -3810833.236 5972877.681 10 0 60101 48600.00000 0 -25074028.034 -3804664.245 2825576.426 10 0 60101 49500.00000 0 -25245926.669 -3692903.513 -376557.743 10 0 60101 50400.00000 0 -25017755.490 -3528969.161 -3571387.037 10 0 60101 51300.00000 0 -24389687.615 -3367912.004 -6696905.611 10 0 60101 52200.00000 0 -23375120.739 -3263847.563 -9692442.165 10 0 60101 53100.00000 0 -22000187.912 -3267430.982 -12499837.262 10 0 60101 54000.00000 0 -20302753.303 -3423482.018 -15064572.346 10 0 60101 54900.00000 0 -18330934.490 -3768861.065 -17336828.468 10 0 60101 55800.00000 0 -16141212.612 -4330686.547 -19272454.094 10 0 60101 56700.00000 0 -13796208.884 -5124969.754 -20833823.246 10 0 60101 57600.00000 0 -11362219.820 -6155725.612 -21990567.493 10 0 60101 58500.00000 0 -8906613.499 -7414597.965 -22720167.658 10 0 60101 59400.00000 0 -6495194.882 -8881016.403 -23008393.911 10 0 60101 60300.00000 0 -4189649.375 -10522879.396 -22849585.735 10 0 60101 61200.00000 0 -2045170.588 -12297736.483 -22246766.210 10 0 60101 62100.00000 0 -108370.463 -14154421.297 -21211588.168 10 0 60101 63000.00000 0 1584441.715 -16035068.241 -19764112.854 10 0 60101 63900.00000 0 3008540.316 -17877429.312 -17932424.870 10 0 60101 64800.00000 0 4151571.542 -19617394.775 -15752090.322 10 0 60101 65700.00000 0 5013816.618 -21191612.465 -13265468.142 10 0 60101 66600.00000 0 5607919.768 -22540095.980 -10520887.557 10 0 60101 67500.00000 0 5958093.375 -23608712.146 -7571707.445 10 0 60101 68400.00000 0 6098834.795 -24351442.899 -4475275.839 10 0 60101 69300.00000 0 6073210.042 -24732325.969 -1291810.143 10 0 60101 70200.00000 0 5930778.007 -24726992.223 1916779.690 10 0 60101 71100.00000 0 5725244.204 -24323734.435 5088101.422 10 0 60101 72000.00000 0 5511944.508 -23524062.162 8160499.833 10 0 60101 72900.00000 0 5345266.586 -22342719.175 11074260.557 10 0 60101 73800.00000 0 5276119.171 -20807162.684 13772774.346 10 0 60101 74700.00000 0 5349557.157 -18956526.383 16203638.584 10 0 60101 75600.00000 0 5602663.608 -16840111.049 18319674.440 10 0 60101 76500.00000 0 6062778.641 -14515466.179 20079839.985 10 0 60101 77400.00000 0 6746150.240 -12046143.107 21450021.891 10 0 60101 78300.00000 0 7657064.051 -9499213.449 22403690.987 10 0 60101 79200.00000 0 8787488.995 -6942656.156 22922409.720 10 0 60101 80100.00000 0 10117253.734 -4442721.520 22996182.530 10 0 60101 81000.00000 0 11614746.931 -2061381.052 22623643.120 10 0 60101 81900.00000 0 13238112.357 146031.802 21812075.681 10 0 60101 82800.00000 0 14936889.321 2132893.250 20577270.053 10 0 60101 83700.00000 0 16654030.469 3862988.342 18943213.866 10 0 60101 84600.00000 0 18328213.257 5311768.582 16941627.525 10 0 60101 85500.00000 0 19896349.110 6467117.047 14611350.807 10 0 60102 0.00000 0 21296185.869 7329590.519 11997592.744 10 0 60102 900.00000 0 22468895.828 7912130.255 9151057.359 10 0 60102 1800.00000 0 23361539.516 8239253.586 6126965.289 10 0 60102 2700.00000 0 23929304.604 8345762.825 2983985.126 10 0 60102 3600.00000 0 24137424.110 8275025.372 -216901.690 10 0 60102 4500.00000 0 23962693.910 8076898.596 -3413581.868 10 0 60102 5400.00000 0 23394525.320 7805387.484 -6544014.110 10 0 60102 6300.00000 0 22435487.944 7516134.342 -9547432.333 10 0 60102 7200.00000 0 21101319.370 7263846.990 -12365524.771 10 0 60102 8100.00000 0 19420400.497 7099774.489 -14943565.909 10 0 60102 9000.00000 0 17432717.724 7069337.446 -17231479.202 10 0 60102 9900.00000 0 15188354.644 7210013.438 -19184809.850 10 0 60102 10800.00000 0 12745575.514 7549567.358 -20765588.824 10 0 60102 11700.00000 0 10168579.780 8104701.979 -21943071.479 10 0 60102 12600.00000 0 7525020.569 8880186.388 -22694336.525 10 0 60102 13500.00000 0 4883389.839 9868499.903 -23004733.867 10 0 60102 14400.00000 0 2310378.320 11050007.528 -22868172.655 10 0 60102 15300.00000 0 -131680.529 12393660.658 -22287243.866 10 0 60102 16200.00000 0 -2387176.875 13858194.806 -21273174.795 10 0 60102 17100.00000 0 -4409303.335 15393775.140 -19845615.965 10 0 60102 18000.00000 0 -6161760.309 16944021.748 -18032264.081 10 0 60102 18900.00000 0 -7620017.395 18448330.341 -15868327.790 10 0 60102 19800.00000 0 -8772078.922 19844391.456 -13395846.072 10 0 60102 20700.00000 0 -9618722.347 21070802.472 -10662872.063 10 0 60102 21600.00000 0 -10173200.421 22069662.500 -7722537.944 10 0 60102 22500.00000 0 -10460420.632 22789040.639 -4632019.000 10 0 60102 23400.00000 0 -10515637.554 23185213.053 -1451417.307 10 0 60102 24300.00000 0 -10382714.443 23224574.008 1757412.775 10 0 60102 25200.00000 0 -10112028.722 22885139.643 4932073.766 10 0 60102 26100.00000 0 -9758111.156 22157580.486 8010844.518 10 0 60102 27000.00000 0 -9377119.758 21045738.745 10933885.427 10 0 60102 27900.00000 0 -9024256.395 19566608.246 13644405.274 10 0 60102 28800.00000 0 -8751236.255 17749777.698 16089766.450 10 0 60102 29700.00000 0 -8603917.860 15636360.605 18222506.850 10 0 60102 30600.00000 0 -8620194.189 13277456.642 20001258.672 10 0 60102 31500.00000 0 -8828234.115 10732208.918 21391546.585 10 0 60102 32400.00000 0 -9245148.380 8065538.122 22366450.415 10 0 60102 33300.00000 0 -9876136.164 5345647.790 22907120.248 10 0 60102 34200.00000 0 -10714148.092 2641404.069 23003134.790 10 0 60102 35100.00000 0 -11740079.765 19698.250 22652696.844 10 0 60102 36000.00000 0 -12923487.779 -2457099.330 21862662.772 10 0 60102 36900.00000 0 -14223798.401 -4733489.407 20648405.829 10 0 60102 37800.00000 0 -15591958.588 -6762901.620 19033516.225 10 0 60102 38700.00000 0 -16972460.675 -8509376.012 17049343.683 10 0 60102 39600.00000 0 -18305656.380 -9948799.658 14734391.098 10 0 60102 40500.00000 0 -19530263.718 -11069648.349 12133570.621 10 0 60102 41400.00000 0 -20585962.176 -11873203.784 9297336.070 10 0 60102 42300.00000 0 -21415967.593 -12373238.339 6280707.984 10 0 60102 43200.00000 0 -21969478.830 -12595181.759 3142209.782 10 0 60102 44100.00000 0 -22203893.415 -12574805.635 -57264.706 10 0 60102 45000.00000 0 -22086698.757 -12356481.719 -3255630.491 10 0 60102 45900.00000 0 -21596959.004 -11991088.054 -6390814.651 10 0 60102 46800.00000 0 -20726334.331 -11533651.647 -9401960.118 10 0 60102 47700.00000 0 -19479589.056 -11040827.573 -12230606.482 10 0 60102 48600.00000 0 -17874566.295 -10568321.239 -14821824.758 10 0 60102 49500.00000 0 -15941629.221 -10168362.930 -17125283.988 10 0 60102 50400.00000 0 -13722591.288 -9887341.545 -19096228.887 10 0 60102 51300.00000 0 -11269179.162 -9763697.667 -20696349.633 10 0 60102 52200.00000 0 -8641091.492 -9826165.180 -21894527.009 10 0 60102 53100.00000 0 -5903733.559 -10092436.013 -22667438.585 10 0 60102 54000.00000 0 -3125721.227 -10568304.773 -23000014.276 10 0 60102 54900.00000 0 -376257.182 -11247329.948 -22885732.517 10 0 60102 55800.00000 0 2277512.195 -12111026.703 -22326751.181 10 0 60102 56700.00000 0 4773050.172 -13129584.005 -21333870.503 10 0 60102 57600.00000 0 7054787.733 -14263076.777 -19926328.315 10 0 60102 58500.00000 0 9076188.854 -15463122.924 -18131431.086 10 0 60102 59400.00000 0 10801437.554 -16674916.211 -15984027.354 10 0 60102 60300.00000 0 12206676.993 -17839549.939 -13525833.229 10 0 60102 61200.00000 0 13280749.471 -18896533.809 -10804622.624 10 0 60102 62100.00000 0 14025407.110 -19786397.904 -7873297.713 10 0 60102 63000.00000 0 14454985.259 -20453273.693 -4788857.601 10 0 60102 63900.00000 0 14595553.300 -20847342.667 -1611285.550 10 0 60102 64800.00000 0 14483579.762 -20927048.558 1597623.127 10 0 60102 65700.00000 0 14164169.191 -20660979.030 4775469.044 10 0 60102 66600.00000 0 13688946.486 -20029336.616 7860468.250 10 0 60102 67500.00000 0 13113679.281 -19024936.189 10792658.737 10 0 60102 68400.00000 0 12495739.999 -17653686.314 13515069.786 10 0 60102 69300.00000 0 11891515.792 -15934533.773 15974830.848 10 0 60102 70200.00000 0 11353876.523 -13898873.252 18124198.152 10 0 60102 71100.00000 0 10929808.138 -11589446.709 19921479.157 10 0 60102 72000.00000 0 10658311.456 -9058778.272 21331837.205 10 0 60102 72900.00000 0 10568654.867 -6367209.846 22327961.342 10 0 60102 73800.00000 0 10679054.239 -3580618.944 22890589.091 10 0 60102 74700.00000 0 10995835.191 -767913.327 23008872.849 10 0 60102 75600.00000 0 11513112.572 2001594.091 22680583.615 10 0 60102 76500.00000 0 12213000.246 4660821.943 21912148.755 10 0 60102 77400.00000 0 13066342.225 7147460.244 20718523.551 10 0 60102 78300.00000 0 14033934.397 9406309.202 19122899.248 10 0 60102 79200.00000 0 15068185.734 11391321.152 17156253.209 10 0 60102 80100.00000 0 16115149.547 13067262.091 14856749.658 10 0 60102 81000.00000 0 17116839.805 14410925.018 12269002.227 10 0 60102 81900.00000 0 18013735.643 15411845.785 9443212.061 10 0 60102 82800.00000 0 18747369.046 16072492.726 6434197.720 10 0 60102 83700.00000 0 19262887.074 16407923.202 3300335.235 10 0 60102 84600.00000 0 19511480.804 16444922.363 102428.522 10 0 60102 85500.00000 0 19452578.527 16220661.035 -3097468.089 99